Weather History for Wasilla, AK

Change the Weather History Date:

Thursday, October 10, 2013

  Actual Average Record
Temperature  
Mean Temperature 35 °F -  
Max Temperature 44 °F 47 °F 62 °F (1986)
Min Temperature 26 °F 31 °F 17 °F (1981)
Degree Days  
Heating Degree Days 30    
Moisture  
Dew Point 27 °F    
Average Humidity 67    
Maximum Humidity 87    
Minimum Humidity 43    
Precipitation  
Precipitation 0.00 in - - ()
Sea Level Pressure  
Sea Level Pressure 29.70 in    
Wind  
Wind Speed 4 mph (ENE)    
Max Wind Speed 10 mph    
Max Gust Speed -    
Visibility 10 miles    
Events      
Averages and records for this station are not official NWS values.
T = Trace of Precipitation, MM = Missing Value Source: NWS Daily Summary

Daily Weather History Graph

Daily Weather History Graph

Search for Another Location

Airport:

Trip Planner

Search our weather history database for the weather conditions in past years. The results will help you decide how hot, cold, wet, or windy it might be!

Date:

Astronomy

Oct. 10, 2013 Rise Set
Actual Time 8:29 AM AKDT 6:59 PM AKDT
Civil Twilight 7:45 AM AKDT 7:43 PM AKDT
Nautical Twilight 6:54 AM AKDT 8:33 PM AKDT
Astronomical Twilight 6:02 AM AKDT 9:25 PM AKDT
Moon 3:38 PM AKDT (10/10) 10:42 PM AKDT (10/10)
Length of Visible Light 11h 57m
Length of Day
10h 30m
Waxing Crescent, 37% of the Moon is Illuminated
Oct 10
Waxing Crescent
Oct 11
First Quarter
Oct 18
Full
Oct 26
Last Quarter
Nov 3
New

Hourly Weather History & Observations

Time (AKDT) Temp. Windchill Dew Point Humidity Pressure Visibility Wind Dir Wind Speed Gust Speed Precip Events Conditions
12:16 AM 30.2 °F - 26.6 °F 86% 29.71 in 10.0 mi Calm Calm - N/A   Clear
12:36 AM 30.2 °F - 24.8 °F 80% 29.71 in 10.0 mi Calm Calm - N/A   Clear
12:56 AM 30.2 °F - 24.8 °F 80% 29.71 in 10.0 mi Calm Calm - N/A   Clear
1:16 AM 28.4 °F - 24.8 °F 86% 29.71 in 10.0 mi Calm Calm - N/A   Clear
1:36 AM 30.2 °F - 24.8 °F 80% 29.72 in 10.0 mi Calm Calm - N/A   Clear
1:56 AM 28.4 °F - 24.8 °F 86% 29.72 in 10.0 mi Calm Calm - N/A   Clear
2:16 AM 28.4 °F - 24.8 °F 86% 29.72 in 10.0 mi Calm Calm - N/A   Clear
2:36 AM 28.4 °F - 23.0 °F 80% 29.73 in 10.0 mi Calm Calm - N/A   Clear
2:56 AM 28.4 °F - 24.8 °F 86% 29.73 in 10.0 mi Calm Calm - N/A   Clear
3:16 AM 26.6 °F 21.2 °F 23.0 °F 86% 29.73 in 10.0 mi SE 4.6 mph - N/A   Clear
3:36 AM 30.2 °F 25.4 °F 24.8 °F 80% 29.73 in 10.0 mi East 4.6 mph - N/A   Clear
3:56 AM 32.0 °F 26.4 °F 24.8 °F 75% 29.73 in 10.0 mi East 5.8 mph - N/A   Clear
4:16 AM 32.0 °F - 24.8 °F 75% 29.72 in 10.0 mi Calm Calm - N/A   Clear
4:36 AM 32.0 °F 26.4 °F 24.8 °F 75% 29.72 in 10.0 mi ENE 5.8 mph - N/A   Clear
4:56 AM 33.8 °F 27.7 °F 24.8 °F 70% 29.71 in 10.0 mi ENE 6.9 mph - N/A   Clear
5:16 AM 33.8 °F 28.6 °F 24.8 °F 70% 29.71 in 10.0 mi East 5.8 mph - N/A   Clear
5:36 AM 35.6 °F 29.9 °F 24.8 °F 65% 29.71 in 10.0 mi East 6.9 mph - N/A   Clear
5:56 AM 35.6 °F 30.7 °F 24.8 °F 65% 29.71 in 10.0 mi East 5.8 mph - N/A   Clear
6:16 AM 35.6 °F 30.7 °F 24.8 °F 65% 29.71 in 10.0 mi ENE 5.8 mph - N/A   Clear
6:36 AM 35.6 °F 29.9 °F 24.8 °F 65% 29.71 in 10.0 mi East 6.9 mph - N/A   Clear
6:56 AM 35.6 °F 31.7 °F 24.8 °F 65% 29.71 in 10.0 mi East 4.6 mph - N/A   Clear
7:16 AM 35.6 °F 30.7 °F 24.8 °F 65% 29.71 in 10.0 mi East 5.8 mph - N/A   Clear
7:36 AM 35.6 °F 31.7 °F 23.0 °F 60% 29.71 in 10.0 mi East 4.6 mph - N/A   Clear
7:56 AM 35.6 °F 32.8 °F 23.0 °F 60% 29.72 in 10.0 mi East 3.5 mph - N/A   Clear
8:16 AM 35.6 °F 30.7 °F 23.0 °F 60% 29.72 in 10.0 mi East 5.8 mph - N/A   Clear
8:36 AM 35.6 °F 29.9 °F 23.0 °F 60% 29.72 in 10.0 mi East 6.9 mph - N/A   Clear
8:56 AM 35.6 °F 29.9 °F 23.0 °F 60% 29.72 in 10.0 mi ENE 6.9 mph - N/A   Clear
9:16 AM - - - N/A% 29.71 in 10.0 mi ENE 9.2 mph - N/A   Mostly Cloudy
9:36 AM - - - N/A% 29.70 in 10.0 mi ENE 10.4 mph - N/A   Overcast
9:56 AM 37.4 °F 31.4 °F 23.0 °F 56% 29.71 in 10.0 mi ENE 8.1 mph - N/A   Overcast
10:16 AM 37.4 °F 31.4 °F 23.0 °F 56% 29.70 in 10.0 mi ENE 8.1 mph - N/A   Mostly Cloudy
10:36 AM 37.4 °F 32.1 °F 23.0 °F 56% 29.70 in 10.0 mi ENE 6.9 mph - N/A   Partly Cloudy
10:56 AM - - - N/A% 29.69 in 10.0 mi ENE 9.2 mph - N/A   Clear
11:16 AM 39.2 °F 33.0 °F 23.0 °F 52% 29.69 in 10.0 mi ENE 9.2 mph - N/A   Clear
11:36 AM 39.2 °F 33.6 °F 23.0 °F 52% 29.69 in 10.0 mi East 8.1 mph - N/A   Mostly Cloudy
11:56 AM 41.0 °F 35.8 °F 23.0 °F 49% 29.69 in 10.0 mi ENE 8.1 mph - N/A   Scattered Clouds
12:16 PM 42.8 °F 37.5 °F 23.0 °F 46% 29.69 in 10.0 mi ENE 9.2 mph - N/A   Scattered Clouds
12:36 PM 42.8 °F 38.6 °F 23.0 °F 46% 29.69 in 10.0 mi East 6.9 mph - N/A   Mostly Cloudy
12:56 PM 42.8 °F 37.5 °F 23.0 °F 46% 29.69 in 10.0 mi East 9.2 mph - N/A   Overcast
1:16 PM 42.8 °F 39.3 °F 23.0 °F 46% 29.69 in 10.0 mi ENE 5.8 mph - N/A   Overcast
1:36 PM 42.8 °F 38.6 °F 23.0 °F 46% 29.70 in 10.0 mi NE 6.9 mph - N/A   Overcast
1:56 PM 42.8 °F 38.6 °F 24.8 °F 49% 29.70 in 10.0 mi ENE 6.9 mph - N/A   Overcast
2:16 PM 44.6 °F - 23.0 °F 43% 29.70 in 10.0 mi Calm Calm - N/A   Overcast
2:36 PM 44.6 °F - 24.8 °F 46% 29.71 in 10.0 mi Calm Calm - N/A   Overcast
2:56 PM 42.8 °F 40.1 °F 28.4 °F 57% 29.71 in 10.0 mi West 4.6 mph - N/A   Overcast
3:16 PM 41.0 °F 38.0 °F 28.4 °F 61% 29.71 in 10.0 mi WSW 4.6 mph - N/A   Overcast
3:36 PM 39.2 °F 37.0 °F 32.0 °F 75% 29.71 in 10.0 mi WSW 3.5 mph - N/A   Overcast
3:56 PM 39.2 °F 34.2 °F 32.0 °F 75% 29.70 in 10.0 mi West 6.9 mph - N/A   Overcast
4:16 PM 39.2 °F 34.2 °F 32.0 °F 75% 29.70 in 10.0 mi West 6.9 mph - N/A   Overcast
4:36 PM 39.2 °F 35.9 °F 33.8 °F 81% 29.70 in 10.0 mi NW 4.6 mph - N/A   Overcast
4:56 PM 39.2 °F 37.0 °F 33.8 °F 81% 29.70 in 10.0 mi WNW 3.5 mph - N/A   Overcast
5:16 PM 39.2 °F - 33.8 °F 81% 29.69 in 10.0 mi Calm Calm - N/A   Overcast
5:36 PM 39.2 °F 37.0 °F 33.8 °F 81% 29.69 in 10.0 mi WNW 3.5 mph - N/A   Overcast
5:56 PM 39.2 °F - 33.8 °F 81% 29.69 in 10.0 mi Calm Calm - N/A   Overcast
6:16 PM 39.2 °F - 33.8 °F 81% 29.69 in 10.0 mi Calm Calm - N/A   Overcast
6:36 PM 41.0 °F 38.0 °F 32.0 °F 70% 29.69 in 10.0 mi ENE 4.6 mph - N/A   Overcast
6:56 PM 42.8 °F 38.6 °F 30.2 °F 61% 29.69 in 10.0 mi ENE 6.9 mph - N/A   Overcast
7:16 PM 42.8 °F 39.3 °F 28.4 °F 57% 29.69 in 10.0 mi ENE 5.8 mph - N/A   Overcast
7:36 PM 42.8 °F 39.3 °F 28.4 °F 57% 29.69 in 10.0 mi ENE 5.8 mph - N/A   Overcast
7:56 PM 42.8 °F 40.1 °F 28.4 °F 57% 29.69 in 10.0 mi ENE 4.6 mph - N/A   Overcast
8:16 PM 42.8 °F 38.6 °F 28.4 °F 57% 29.69 in 10.0 mi ENE 6.9 mph - N/A   Overcast
8:36 PM 42.8 °F 38.0 °F 28.4 °F 57% 29.69 in 10.0 mi ENE 8.1 mph - N/A   Overcast
8:56 PM 42.8 °F 37.5 °F 28.4 °F 57% 29.69 in 10.0 mi ENE 9.2 mph - N/A   Overcast
9:16 PM 42.8 °F 38.0 °F 28.4 °F 57% 29.70 in 10.0 mi ENE 8.1 mph - N/A   Overcast
9:36 PM 42.8 °F 38.6 °F 28.4 °F 57% 29.70 in 10.0 mi ENE 6.9 mph - N/A   Overcast
9:56 PM 42.8 °F 40.1 °F 28.4 °F 57% 29.70 in 10.0 mi NE 4.6 mph - N/A   Overcast
10:16 PM 39.2 °F - 28.4 °F 65% 29.70 in 10.0 mi Calm Calm - N/A   Overcast
10:36 PM 37.4 °F 33.8 °F 30.2 °F 75% 29.70 in 10.0 mi WSW 4.6 mph - N/A   Overcast
10:56 PM 35.6 °F 32.8 °F 32.0 °F 87% 29.70 in 10.0 mi WSW 3.5 mph - N/A   Overcast
11:16 PM 35.6 °F 32.8 °F 30.2 °F 81% 29.71 in 10.0 mi WSW 3.5 mph - N/A   Overcast
11:36 PM 35.6 °F - 32.0 °F 87% 29.71 in 10.0 mi Calm Calm - N/A   Overcast
11:56 PM 35.6 °F 32.8 °F 32.0 °F 87% 29.71 in 10.0 mi West 3.5 mph - N/A   Overcast